Wetbulb
61.00 60.59 59.94 60.28 60.10 60.05 59.61 59.56 59.79 59.99 60.20 60.81 61.10 61.33 61.32 61.21 61.30 61.49 61.71 62.04 62.20 62.66 63.22 63.73 63.86 64.39 59.65 52.15 50.96 57.54 65.24 65.87 59.94 59.14 58.45 57.41 55.60 56.01 53.62 54.66 55.17 52.01 53.82 55.65 55.37 54.82 53.68
61.14 60.90 60.58 60.38 60.33 60.31 60.03 59.72 59.61 59.55 59.91 60.41 60.95 61.15 61.12 60.93 60.98 61.14 61.46 61.83 62.15 62.30 62.80 63.04 63.91 63.86 55.39 48.31 54.59 56.78 56.86 56.88 57.55 58.29 58.24 58.67 56.82 56.72 54.08 55.37 52.29 54.32 53.40 53.64 53.54 52.54 53.94
61.55 61.21 60.90 60.58 60.34 60.18 59.95 59.89 59.21 58.90 59.05 59.54 60.51 60.94 61.01 60.72 60.68 60.92 61.34 61.66 61.71 61.60 62.03 62.73 64.06 60.49 54.05 49.54 54.78 56.19 56.30 56.14 57.52 58.29 57.34 59.10 58.61 55.27 57.00 53.98 54.90 54.14 49.55 50.88 50.97 51.39 51.02
61.38 61.56 61.35 60.93 60.47 60.13 59.40 59.17 58.74 58.74 58.75 59.30 59.58 60.31 60.31 60.14 60.39 60.70 61.13 61.43 61.37 61.57 62.26 63.34 63.76 57.86 51.08 54.60 56.56 54.73 56.06 55.74 58.30 59.14 59.54 60.98 59.78 57.33 55.87 54.90 52.95 49.18 49.38 44.95 50.15 50.90 51.59
61.87 61.07 60.77 60.90 60.83 60.26 59.58 58.99 58.56 58.37 58.77 58.73 59.40 59.49 59.48 59.58 59.68 60.25 60.57 60.76 61.07 62.33 63.10 63.39 58.39 56.34 49.69 56.78 52.65 55.36 56.07 54.42 56.75 57.69 60.36 58.13 58.74 55.89 56.11 49.42 46.58 47.96 42.64 44.88 47.49 51.16 50.88
62.53 62.14 61.86 61.23 60.22 60.14 60.02 59.12 58.57 58.05 58.04 58.66 58.33 58.65 58.67 58.74 59.29 59.82 59.99 59.24 61.47 61.30 60.91 61.02 58.81 50.78 50.86 49.04 53.40 54.12 55.84 55.88 55.07 55.96 54.70 54.17 53.51 50.18 49.07 46.59 40.69 44.00 43.30 45.64 45.77 49.00 49.28
63.16 62.99 62.50 62.23 61.81 61.00 59.91 59.73 58.74 58.08 58.08 58.26 58.25 58.59 58.52 58.48 59.10 59.39 57.42 57.66 54.00 53.18 54.38 51.70 51.95 50.92 51.04 52.63 54.18 52.04 54.71 54.33 54.69 53.54 48.90 51.99 47.56 44.90 47.41 48.42 48.82 48.51 46.44 45.62 48.20 51.06 48.03
63.44 63.46 63.29 62.87 62.52 62.11 61.33 60.35 59.43 58.70 57.68 57.72 57.86 58.71 58.67 58.59 58.75 58.64 55.87 55.59 55.07 55.30 47.82 53.98 53.69 52.62 53.80 53.51 48.61 50.83 54.71 50.65 51.21 47.88 50.70 49.40 44.50 49.97 51.83 51.41 49.00 48.08 45.61 44.70 48.01 49.84 47.96
61.48 61.59 61.65 61.76 62.30 62.14 61.74 61.22 60.65 59.70 58.73 57.76 57.14 57.56 58.38 58.51 58.10 55.89 55.65 56.29 59.90 57.65 48.69 51.85 53.14 51.61 51.77 52.43 48.46 49.10 51.85 51.56 50.18 48.52 48.85 46.84 49.82 51.46 49.98 49.28 47.44 46.91 44.89 44.72 44.78 48.32 48.03
59.43 59.62 59.91 59.94 60.01 60.08 60.16 60.83 61.18 60.82 60.05 58.93 57.63 56.73 57.34 57.04 53.42 56.39 54.22 58.73 60.74 59.43 44.54 46.86 47.78 50.55 51.32 51.98 47.98 53.13 53.04 52.58 50.54 47.50 49.10 48.87 51.07 48.56 47.69 46.48 47.47 43.25 48.66 47.55 46.67 43.44 37.92
57.55 57.43 57.43 57.36 58.01 57.72 57.96 58.26 58.72 59.53 60.04 59.54 58.83 57.07 56.36 56.08 53.87 53.96 57.45 60.27 60.23 56.23 38.53 48.22 48.03 53.72 52.09 48.57 50.25 50.05 55.72 52.67 47.79 48.03 49.02 47.04 46.77 46.14 45.76 46.39 48.33 45.72 49.34 47.61 46.50 42.93 41.32
56.53 56.39 56.18 55.98 55.91 56.28 56.90 57.08 57.18 57.53 57.38 57.21 58.65 57.95 55.80 56.11 56.26 58.96 60.45 59.36 56.30 44.60 38.49 45.79 48.58 46.25 46.86 48.24 49.31 50.88 50.15 52.95 53.91 48.66 48.84 48.02 50.28 49.01 47.82 49.71 49.40 49.07 46.82 46.61 45.10 41.78 34.56
55.15 55.24 55.32 55.22 55.27 55.79 56.21 56.24 56.16 56.05 56.41 55.99 56.30 57.40 54.94 56.88 56.46 62.61 60.63 54.50 44.08 39.73 48.96 45.27 45.62 47.04 45.92 46.15 46.27 48.40 46.77 45.31 43.59 40.64 41.72 46.31 46.69 48.85 49.82 45.99 48.41 46.75 42.30 35.51 34.42 34.25 33.61
54.63 54.47 54.43 54.92 55.12 55.47 55.62 55.91 55.77 55.58 55.70 55.19 54.63 56.15 58.06 57.67 59.33 62.16 57.68 47.53 38.39 46.52 47.77 49.74 47.59 47.13 44.17 46.80 46.80 47.05 46.13 43.89 47.15 45.96 43.47 41.52 39.67 45.79 48.19 46.22 43.70 43.12 42.56 36.73 30.85 33.03 37.41
54.43 54.26 54.22 54.22 54.97 55.19 55.13 55.39 55.64 55.44 54.81 53.99 54.22 60.44 58.92 60.41 60.22 60.56 52.43 40.70 43.60 47.42 48.91 47.60 47.25 44.42 44.77 46.83 46.85 46.33 45.34 44.76 47.26 47.26 42.05 41.94 42.15 49.62 48.31 48.38 47.64 44.21 39.64 44.93 39.47 40.63 35.94
54.74 55.56 55.99 55.13 54.26 54.81 54.93 54.76 54.84 55.28 54.44 53.06 53.99 56.06 56.99 61.33 59.89 55.79 48.02 43.20 46.66 50.94 50.81 49.98 43.25 46.76 43.94 46.84 45.14 45.10 45.29 48.54 46.94 49.58 49.52 46.23 40.81 47.93 47.76 48.40 47.89 45.61 47.36 38.50 38.39 30.45 29.06
55.28 55.44 55.77 56.56 56.21 55.57 55.63 54.87 54.78 54.92 54.19 53.19 54.90 51.44 57.56 60.98 58.68 49.68 43.05 45.91 49.02 52.54 52.51 47.43 45.78 44.35 44.60 44.28 45.63 45.55 45.50 49.01 50.75 50.18 50.07 47.70 44.43 44.08 44.24 42.56 41.94 41.86 40.93 42.63 41.79 38.54 31.59
55.36 55.60 55.78 56.29 56.13 55.68 55.78 55.00 54.77 55.10 53.45 52.32 52.10 45.08 58.29 59.27 48.24 48.80 45.26 47.78 49.35 50.37 52.43 50.22 49.04 47.34 45.32 45.38 44.70 44.82 44.64 48.58 51.55 51.08 47.14 48.89 45.30 40.25 41.22 47.00 47.74 45.79 43.00 43.23 37.01 35.04 38.76
55.58 55.24 55.04 56.00 55.90 55.56 55.66 55.69 55.61 54.89 53.38 48.66 46.35 47.66 57.75 56.73 42.23 43.46 46.68 46.21 48.26 48.65 49.60 48.32 46.77 48.63 49.22 45.91 42.35 45.67 46.46 50.59 51.09 50.09 47.79 48.33 43.29 37.30 39.92 42.79 44.82 42.61 44.54 44.36 43.43 41.48 37.74
55.18 54.50 54.40 54.74 55.32 55.29 55.34 55.60 55.53 55.17 54.17 50.51 45.99 40.14 47.41 51.23 50.01 45.49 43.90 44.14 44.27 49.56 48.22 48.55 46.88 48.69 47.09 45.29 47.35 43.98 45.18 49.27 47.97 50.24 55.20 51.23 44.68 41.27 36.26 40.50 43.48 39.54 42.60 44.22 42.81 37.75 38.02
53.83 53.71 53.73 53.76 54.78 55.06 55.14 55.12 54.99 55.05 54.48 50.80 46.08 43.03 45.56 39.06 42.22 43.29 42.65 41.90 40.60 41.24 46.43 47.78 44.45 43.88 43.75 40.70 42.38 42.46 45.49 46.03 48.13 49.73 49.15 47.57 40.61 42.88 43.99 45.40 46.02 45.13 43.13 42.72 41.15 41.88 38.35
52.96 53.00 52.81 53.03 53.83 54.39 54.67 54.99 55.00 54.63 53.93 49.53 43.10 41.71 43.68 40.58 41.62 39.44 39.08 37.50 37.93 40.54 42.03 41.55 41.88 43.89 43.49 40.55 42.07 40.31 42.40 42.73 42.43 45.10 41.56 44.11 39.50 42.35 40.54 44.38 44.62 42.91 45.04 45.41 43.05 43.07 42.80
52.64 52.63 52.90 52.77 54.00 54.19 54.15 54.39 54.70 54.10 52.68 47.64 48.87 47.68 42.57 39.99 38.96 37.62 38.07 38.78 38.88 40.39 41.20 42.01 40.92 39.67 41.24 43.15 45.12 45.12 45.38 44.27 42.73 39.44 36.45 36.36 36.87 37.48 35.52 42.28 42.48 38.74 43.12 44.75 45.33 45.45 43.78
52.25 53.01 52.79 52.68 53.25 54.17 54.41 54.51 54.16 54.16 52.73 49.30 48.20 48.13 41.62 35.22 37.97 37.67 39.10 39.55 38.28 39.11 37.81 41.01 41.44 38.71 41.78 45.72 45.32 44.39 43.35 42.82 42.25 41.99 42.31 36.53 35.99 35.03 33.33 38.65 31.42 42.77 48.18 47.88 46.04 46.92 46.66
51.91 51.83 52.38 51.86 52.93 53.40 54.07 54.03 54.05 54.20 53.73 50.99 49.95 47.21 42.84 36.34 38.18 38.42 38.78 38.71 40.03 40.83 39.53 39.66 42.07 43.74 46.80 43.83 37.66 34.46 34.20 35.66 37.86 40.32 40.53 42.06 38.76 34.56 32.75 33.62 38.93 43.41 45.97 45.52 43.38 42.70 48.12
51.48 51.70 51.80 51.81 52.81 52.96 53.23 53.76 54.24 54.04 53.63 51.63 50.08 50.99 46.23 38.25 36.20 40.14 38.56 39.85 36.58 36.78 38.03 39.96 43.95 44.72 44.57 39.68 36.00 28.69 27.21 31.83 31.27 35.67 43.80 43.01 43.00 37.89 34.85 31.76 31.32 41.01 47.47 48.58 46.07 37.28 46.88
51.29 51.43 51.57 51.59 52.13 52.52 53.08 53.57 53.80 53.60 53.34 51.90 49.11 51.25 46.28 39.71 41.64 41.52 37.64 37.10 40.76 38.99 36.15 38.46 39.50 39.80 42.95 36.87 32.55 29.67 28.74 34.56 28.21 29.36 31.07 34.31 35.03 31.37 30.66 28.36 35.71 44.45 48.17 48.07 36.71 38.87 46.21
50.92 51.04 51.07 51.05 51.26 51.90 51.77 52.99 53.40 53.47 53.21 51.67 48.66 51.22 46.90 41.52 42.19 44.00 43.82 40.23 40.52 39.66 35.03 38.64 37.03 37.94 36.56 31.94 31.38 30.97 30.43 33.01 32.23 34.22 33.49 32.48 30.58 30.23 32.64 29.41 28.50 43.61 43.03 38.40 40.69 43.62 44.52
50.81 50.98 50.86 50.77 51.48 51.57 51.73 52.07 52.75 53.13 52.80 52.12 46.62 50.59 50.85 44.31 42.13 47.10 47.24 47.69 46.10 45.10 41.09 40.62 37.98 37.80 38.96 34.81 35.09 34.46 30.80 32.42 30.39 26.16 35.32 29.72 36.35 33.28 34.91 35.51 40.70 42.75 43.89 44.05 44.20 44.55 43.88
MSLP
1019.65 1019.45 1019.27 1019.09 1018.87 1018.71 1018.56 1018.43 1018.26 1018.07 1017.90 1017.63 1017.42 1017.21 1017.08 1016.99 1016.78 1016.59 1016.45 1016.29 1016.10 1015.87 1015.64 1015.51 1015.29 1015.06 1014.70 1013.58 1012.55 1012.82 1013.07 1012.84 1012.68 1012.39 1011.90 1011.49 1011.05 1010.76 1010.42 1010.13 1010.40 1010.48 1010.55 1010.86 1011.10 1011.43 1011.36
1019.98 1019.79 1019.60 1019.37 1019.14 1018.91 1018.70 1018.61 1018.48 1018.31 1018.08 1017.89 1017.64 1017.38 1017.14 1016.94 1016.79 1016.58 1016.44 1016.25 1015.98 1015.81 1015.65 1015.40 1015.16 1015.03 1014.35 1012.99 1012.39 1012.35 1012.61 1012.50 1012.38 1012.11 1011.64 1011.54 1010.85 1010.40 1010.46 1010.17 1010.39 1010.19 1010.65 1011.12 1011.56 1011.71 1011.54
1020.26 1020.02 1019.79 1019.56 1019.34 1019.12 1018.92 1018.71 1018.61 1018.52 1018.33 1018.04 1017.70 1017.49 1017.24 1017.08 1016.83 1016.57 1016.29 1016.09 1015.89 1015.73 1015.41 1015.10 1015.08 1014.69 1013.32 1012.53 1012.15 1012.19 1012.45 1012.28 1012.40 1012.12 1011.61 1011.38 1011.18 1010.92 1010.41 1010.67 1010.78 1010.68 1011.13 1011.46 1011.55 1011.78 1011.98
1020.55 1020.31 1020.03 1019.76 1019.49 1019.21 1018.98 1018.77 1018.63 1018.47 1018.30 1018.10 1017.87 1017.65 1017.44 1017.20 1016.93 1016.63 1016.28 1016.02 1015.77 1015.39 1015.06 1014.83 1014.89 1014.41 1012.61 1012.31 1012.17 1012.34 1012.11 1012.01 1012.19 1012.07 1011.94 1011.82 1011.57 1011.25 1010.90 1010.91 1010.90 1011.00 1010.96 1011.21 1010.61 1011.40 1011.84
1020.91 1020.70 1020.45 1020.13 1019.79 1019.47 1019.16 1018.92 1018.71 1018.52 1018.30 1018.12 1017.94 1017.77 1017.58 1017.34 1017.03 1016.66 1016.35 1015.90 1015.31 1015.05 1014.81 1014.67 1014.41 1013.53 1012.12 1012.57 1012.21 1011.84 1011.98 1011.75 1011.84 1011.91 1011.86 1011.72 1011.65 1011.13 1011.24 1011.05 1011.06 1010.83 1010.38 1010.46 1010.69 1010.75 1011.34
1021.30 1021.00 1020.76 1020.51 1020.21 1019.86 1019.53 1019.21 1018.94 1018.72 1018.48 1018.21 1018.04 1017.80 1017.56 1017.31 1017.01 1016.72 1016.09 1015.55 1014.89 1014.89 1014.43 1013.99 1013.60 1013.16 1012.17 1011.62 1011.66 1011.80 1011.85 1012.00 1011.79 1011.74 1011.89 1011.74 1011.51 1011.12 1010.99 1010.82 1010.14 1009.82 1009.96 1009.56 1009.40 1009.99 1010.66
1021.67 1021.38 1021.09 1020.75 1020.44 1020.15 1019.88 1019.55 1019.31 1018.99 1018.67 1018.39 1018.08 1017.77 1017.51 1017.27 1017.04 1016.76 1015.74 1014.89 1015.18 1014.68 1013.69 1012.47 1011.99 1011.45 1011.36 1011.53 1011.83 1011.81 1011.63 1011.86 1011.77 1011.64 1011.40 1011.28 1011.08 1010.26 1010.02 1009.98 1009.44 1009.37 1009.32 1008.97 1008.59 1008.67 1010.10
1022.07 1021.72 1021.40 1021.10 1020.77 1020.38 1020.01 1019.68 1019.38 1019.08 1018.80 1018.50 1018.21 1017.87 1017.59 1017.27 1016.91 1016.66 1016.63 1014.90 1014.47 1014.65 1013.25 1011.53 1011.33 1011.31 1011.36 1011.22 1011.24 1011.19 1011.44 1011.68 1011.39 1011.13 1010.85 1010.86 1010.26 1009.56 1009.09 1008.98 1009.18 1009.19 1009.40 1009.20 1008.99 1009.42 1010.02
1022.81 1022.38 1021.96 1021.58 1021.16 1020.73 1020.32 1019.89 1019.48 1019.15 1018.81 1018.49 1018.16 1017.90 1017.62 1017.29 1016.89 1016.50 1015.34 1014.50 1014.31 1014.18 1013.53 1010.97 1010.90 1010.89 1010.99 1011.39 1010.82 1010.37 1011.32 1011.05 1010.78 1010.64 1010.05 1009.62 1009.09 1008.64 1008.99 1008.90 1009.14 1009.32 1009.39 1009.33 1009.39 1009.65 1009.91
1023.40 1023.07 1022.71 1022.30 1021.80 1021.35 1020.93 1020.39 1019.90 1019.48 1019.03 1018.62 1018.25 1017.88 1017.47 1017.11 1017.19 1015.13 1014.65 1014.52 1014.52 1014.46 1013.40 1011.16 1010.83 1010.39 1010.93 1011.15 1010.83 1010.26 1010.62 1010.74 1010.40 1010.05 1009.81 1009.17 1008.80 1008.93 1008.92 1008.85 1009.20 1009.28 1009.23 1009.42 1009.85 1010.29 1010.36
1023.92 1023.64 1023.28 1022.94 1022.52 1022.10 1021.55 1020.98 1020.47 1019.90 1019.30 1018.87 1018.47 1017.94 1017.55 1017.36 1016.77 1015.07 1015.02 1014.69 1014.55 1014.39 1012.78 1010.49 1010.38 1010.49 1010.22 1010.68 1010.60 1010.77 1010.75 1010.93 1010.62 1009.88 1009.64 1008.74 1008.88 1009.06 1008.95 1008.84 1009.02 1009.54 1009.84 1010.16 1010.53 1010.75 1010.68
1024.32 1024.00 1023.71 1023.38 1022.97 1022.53 1022.07 1021.53 1020.99 1020.34 1019.74 1019.18 1018.54 1018.09 1017.61 1016.84 1016.44 1015.15 1014.85 1014.76 1014.56 1014.01 1011.06 1009.70 1009.85 1010.14 1010.17 1010.22 1009.92 1010.73 1011.00 1011.22 1010.51 1010.24 1009.49 1008.86 1009.04 1008.92 1008.72 1009.01 1009.39 1009.91 1010.66 1010.97 1011.19 1011.42 1010.47
1024.81 1024.44 1024.05 1023.64 1023.23 1022.80 1022.34 1021.81 1021.24 1020.56 1019.86 1019.11 1018.39 1017.88 1017.82 1016.34 1015.50 1015.19 1015.09 1014.71 1014.13 1012.08 1009.33 1009.07 1008.93 1009.24 1009.49 1009.18 1009.55 1009.80 1010.22 1010.25 1009.99 1010.03 1009.24 1008.76 1008.32 1008.52 1008.63 1009.32 1010.01 1010.41 1010.93 1011.22 1011.62 1011.24 1009.23
1025.14 1024.78 1024.39 1023.97 1023.51 1023.03 1022.48 1021.90 1021.29 1020.65 1019.94 1019.12 1018.10 1017.50 1016.35 1015.57 1015.07 1015.10 1015.04 1014.77 1013.11 1010.14 1008.52 1008.20 1008.39 1008.59 1008.75 1008.29 1008.15 1008.47 1008.90 1008.97 1008.82 1008.54 1008.10 1007.52 1007.14 1007.64 1007.87 1008.04 1008.59 1009.60 1010.02 1010.04 1009.78 1009.55 1008.36
1025.27 1024.95 1024.58 1024.20 1023.77 1023.27 1022.75 1022.14 1021.49 1020.71 1019.84 1019.07 1017.63 1015.78 1015.24 1014.56 1015.05 1015.17 1014.91 1013.87 1011.24 1009.58 1009.08 1008.71 1008.58 1008.34 1008.01 1007.78 1007.50 1007.47 1007.40 1007.27 1007.20 1007.63 1007.40 1006.24 1005.24 1005.41 1006.12 1006.94 1007.93 1008.64 1009.31 1009.28 1009.45 1008.79 1008.51
1025.45 1025.04 1024.68 1024.27 1023.91 1023.53 1023.06 1022.50 1021.83 1020.96 1019.92 1019.24 1018.22 1016.12 1014.44 1013.88 1014.61 1014.86 1014.68 1012.84 1010.91 1009.91 1009.69 1009.70 1009.42 1008.72 1007.92 1007.15 1007.16 1007.12 1006.34 1005.38 1005.69 1005.70 1006.02 1005.09 1005.00 1005.04 1005.96 1007.14 1007.38 1007.59 1008.36 1009.29 1009.43 1008.44 1007.37
1025.62 1025.25 1024.85 1024.47 1024.05 1023.72 1023.33 1022.80 1022.14 1021.30 1019.96 1018.65 1017.99 1015.75 1015.04 1014.58 1014.70 1014.62 1013.22 1011.85 1011.21 1010.45 1009.84 1010.11 1009.65 1009.45 1009.15 1008.58 1007.58 1006.86 1005.82 1005.06 1004.71 1004.73 1004.98 1005.10 1005.65 1005.52 1006.39 1006.09 1006.11 1007.47 1007.88 1007.69 1007.62 1007.03 1005.76
1025.66 1025.32 1024.99 1024.62 1024.27 1023.89 1023.46 1023.00 1022.53 1021.74 1020.59 1018.60 1017.82 1015.90 1014.96 1014.77 1014.99 1013.77 1012.73 1012.17 1011.78 1010.82 1010.67 1010.30 1010.18 1010.16 1009.75 1009.48 1008.36 1007.35 1006.40 1005.25 1004.93 1004.80 1004.74 1004.62 1005.08 1005.07 1005.08 1005.09 1005.39 1005.54 1005.51 1006.08 1006.12 1005.37 1004.64
1025.76 1025.47 1025.17 1024.85 1024.45 1024.04 1023.62 1023.28 1022.88 1022.37 1021.89 1021.19 1018.72 1016.79 1015.16 1015.03 1014.78 1013.89 1013.08 1012.20 1011.66 1010.99 1010.65 1010.73 1010.53 1010.40 1010.02 1009.84 1009.25 1008.25 1007.08 1006.28 1006.26 1005.52 1005.03 1005.03 1004.87 1004.99 1004.84 1005.32 1005.11 1004.54 1004.81 1005.16 1005.27 1005.28 1003.56
1025.98 1025.66 1025.26 1024.92 1024.61 1024.29 1023.86 1023.39 1023.00 1022.59 1022.10 1021.58 1019.30 1017.32 1015.41 1015.30 1015.35 1015.14 1014.41 1013.35 1012.57 1011.95 1011.52 1011.76 1011.73 1011.57 1011.04 1010.62 1010.45 1008.94 1008.57 1007.86 1007.77 1006.82 1005.74 1005.41 1005.28 1004.79 1003.54 1003.03 1003.61 1003.90 1003.66 1003.65 1004.04 1003.90 1001.79
1026.05 1025.72 1025.44 1025.07 1024.73 1024.41 1023.99 1023.62 1023.27 1022.86 1022.29 1022.00 1019.58 1018.09 1017.83 1016.94 1016.35 1015.89 1015.56 1014.82 1013.81 1013.15 1012.92 1012.41 1011.72 1012.25 1012.10 1011.76 1011.44 1011.30 1010.90 1009.81 1008.83 1009.25 1008.57 1007.26 1006.11 1005.15 1003.96 1003.14 1002.29 1001.59 1001.65 1001.79 1001.83 1000.91 1001.58
1026.06 1025.85 1025.47 1025.12 1024.70 1024.42 1024.09 1023.86 1023.45 1023.14 1022.53 1021.89 1020.72 1020.60 1020.18 1019.58 1018.47 1017.51 1016.71 1015.44 1014.59 1013.80 1013.54 1012.98 1012.46 1012.43 1012.33 1012.18 1012.62 1012.24 1012.55 1012.56 1011.96 1011.00 1011.67 1010.52 1008.79 1006.45 1004.16 1003.27 1002.25 1001.16 1000.29 999.97 1000.00 999.85 1000.00
1026.05 1025.76 1025.42 1025.06 1024.66 1024.39 1024.12 1023.93 1023.63 1023.43 1023.16 1022.41 1021.42 1021.47 1021.44 1020.35 1019.27 1018.46 1017.17 1016.09 1015.38 1014.64 1014.15 1013.74 1013.33 1012.94 1012.38 1012.49 1012.36 1012.61 1013.23 1013.44 1013.56 1013.68 1013.23 1012.99 1011.12 1009.32 1005.65 1003.67 1001.67 999.82 998.56 998.31 998.48 998.55 998.85
1025.89 1025.57 1025.30 1025.00 1024.67 1024.37 1024.09 1023.84 1023.65 1023.55 1023.60 1023.29 1022.91 1022.66 1021.92 1020.30 1019.79 1018.67 1017.97 1017.43 1016.52 1016.02 1014.83 1014.77 1014.47 1013.69 1012.65 1012.64 1012.36 1012.36 1012.38 1012.14 1011.94 1011.34 1012.01 1011.55 1011.13 1009.98 1007.07 1005.34 999.98 997.70 997.28 997.08 997.34 997.17 997.45
1025.66 1025.46 1025.18 1024.85 1024.52 1024.23 1023.97 1023.73 1023.49 1023.32 1023.40 1023.48 1022.88 1022.87 1022.24 1020.74 1020.09 1019.03 1018.51 1017.61 1016.94 1016.13 1015.30 1014.54 1014.01 1013.64 1013.44 1013.34 1013.43 1012.83 1011.93 1011.17 1009.50 1009.26 1009.52 1010.31 1010.10 1008.88 1006.90 1004.66 1001.46 998.29 996.82 996.15 995.98 996.00 996.33
1025.40 1025.08 1024.77 1024.52 1024.22 1023.95 1023.68 1023.47 1023.25 1023.00 1022.96 1023.05 1022.54 1022.13 1022.23 1021.21 1019.44 1019.14 1018.48 1017.93 1017.20 1016.40 1015.32 1015.02 1014.16 1014.14 1014.08 1013.90 1013.85 1013.06 1012.17 1010.86 1009.62 1008.31 1007.95 1008.91 1009.02 1008.74 1008.08 1004.37 1001.40 999.05 997.03 995.93 996.66 996.03 996.43
1025.12 1024.76 1024.44 1024.19 1023.94 1023.66 1023.30 1023.06 1022.82 1022.56 1022.38 1022.51 1021.97 1021.57 1021.52 1020.42 1018.80 1018.80 1017.98 1017.61 1017.08 1016.61 1016.13 1015.35 1014.92 1014.35 1014.42 1014.52 1013.78 1013.12 1012.20 1011.38 1010.22 1009.08 1008.13 1008.31 1008.65 1008.95 1007.60 1006.49 1004.29 1001.21 997.92 996.83 997.78 997.42 996.67
1024.85 1024.44 1024.11 1023.84 1023.58 1023.26 1022.97 1022.61 1022.29 1022.01 1021.84 1021.83 1021.22 1020.67 1020.52 1019.61 1018.09 1017.51 1017.26 1016.68 1016.18 1016.43 1016.26 1015.25 1015.95 1014.52 1014.15 1014.07 1013.94 1012.87 1011.88 1011.12 1010.44 1009.46 1008.47 1008.12 1008.26 1008.10 1007.23 1006.29 1005.48 1002.62 999.84 1000.96 1002.45 1000.37 998.89
1024.28 1023.96 1023.62 1023.26 1022.96 1022.69 1022.40 1022.10 1021.75 1021.38 1021.12 1021.01 1020.51 1019.83 1019.34 1019.20 1017.21 1016.41 1015.59 1014.57 1015.21 1014.97 1015.23 1015.06 1014.99 1014.40 1014.30 1013.99 1013.73 1013.36 1012.41 1011.86 1011.07 1009.83 1008.65 1008.78 1008.11 1007.65 1007.33 1005.56 1004.23 1003.37 1003.08 1002.72 1002.48 1002.22 1000.36
Wind_Speed
14 12 12 11 9 9 9 9 9 9 9 8 8 8 8 7 8 8 8 8 8 9 10 10 10 9 7 8 3 8 4 8 9 4 7 5 8 7 5 5 3 7 5 1 5 1 4
16 15 14 13 12 10 9 9 9 9 9 10 8 8 8 8 8 8 8 8 9 10 10 11 9 9 6 8 2 2 1 4 3 6 5 6 5 5 7 1 5 3 5 3 4 5 3
16 16 16 15 14 13 12 10 10 10 10 10 10 10 10 10 10 9 9 9 9 10 11 11 7 5 10 2 1 1 3 1 2 5 5 1 6 5 3 1 4 3 5 4 7 8 5
17 17 17 17 16 15 13 12 11 10 11 11 12 12 12 12 12 12 12 11 11 10 10 10 6 6 5 3 5 3 5 4 4 4 4 2 5 7 3 5 3 6 8 4 12 10 6
18 18 18 18 18 17 16 14 12 11 11 10 11 12 13 14 14 15 16 16 13 9 8 7 6 8 1 2 4 6 3 4 4 3 2 4 4 3 2 5 5 7 6 13 8 13 7
18 19 19 19 18 18 17 16 14 12 12 11 11 12 12 13 14 16 18 12 6 7 6 8 9 6 3 2 6 3 4 4 6 5 4 5 4 4 6 7 6 7 12 10 11 14 14
17 17 18 18 18 19 18 17 15 14 12 12 11 12 12 13 14 13 12 4 4 5 8 8 1 7 4 4 4 7 7 7 7 7 8 10 5 8 13 14 14 2 9 10 7 12 10
20 18 18 18 18 19 20 18 16 15 14 13 12 12 11 12 13 11 5 6 7 3 9 13 14 8 4 5 4 9 8 7 8 11 12 6 12 14 10 6 12 9 10 10 9 6 5
21 21 21 21 20 19 19 18 17 15 14 13 12 11 12 12 13 6 6 5 3 5 5 4 8 10 7 7 7 10 11 7 8 11 13 13 3 11 7 4 6 9 11 10 8 3 6
21 21 22 22 23 23 23 21 19 17 17 16 15 12 10 12 4 2 2 6 2 3 5 7 7 6 5 5 6 7 12 5 7 11 13 11 14 7 7 10 11 12 7 9 4 3 4
20 21 21 22 21 22 23 23 23 23 21 19 18 17 11 6 7 3 4 3 4 3 6 8 7 4 8 9 7 5 2 4 8 9 7 3 7 7 8 11 9 7 2 2 5 6 8
20 21 21 21 21 22 21 21 21 21 20 21 20 18 15 3 4 5 5 5 3 4 7 6 8 8 8 13 8 6 6 5 2 9 15 12 3 7 11 2 3 9 3 2 3 3 8
19 20 21 21 22 21 20 21 21 22 22 22 20 16 8 4 3 6 5 4 4 6 2 7 7 8 13 11 12 11 11 11 9 6 10 13 17 4 5 5 1 5 4 3 4 4 9
18 19 19 19 20 20 21 21 22 23 24 24 25 16 7 6 2 3 3 4 7 9 12 4 2 10 10 10 15 16 9 15 19 16 6 10 10 18 16 15 10 13 11 7 7 8 11
18 18 18 18 18 19 19 21 22 24 25 24 26 4 5 5 7 3 4 8 5 4 12 14 1 8 11 12 9 16 21 19 15 20 12 11 15 8 12 13 14 9 11 11 11 15 9
16 16 16 16 17 16 18 21 23 24 26 23 7 7 7 8 6 5 6 13 12 15 20 17 15 12 16 12 13 9 11 10 26 21 22 8 18 8 8 9 11 10 2 4 5 6 9
18 18 19 17 17 16 17 20 23 25 29 27 4 5 3 1 5 6 10 12 17 17 15 9 14 19 21 22 23 15 14 10 11 10 22 19 12 2 8 13 16 6 7 8 4 9 5
16 17 18 17 15 15 17 19 20 22 27 11 5 4 2 3 5 6 12 19 17 18 19 13 14 17 18 20 23 24 24 19 10 6 13 19 8 15 20 10 20 18 14 21 9 8 10
16 16 18 17 16 15 15 16 16 16 16 7 6 5 3 3 6 9 14 21 20 18 15 17 17 16 15 20 22 18 22 19 18 7 7 5 8 15 18 6 3 12 19 18 20 11 21
16 16 16 16 15 16 15 14 15 12 14 7 4 5 3 6 7 13 15 15 17 16 16 11 10 14 16 21 20 22 26 18 23 17 15 5 10 15 19 21 9 10 16 22 21 17 24
16 16 17 17 16 15 15 13 14 13 13 6 3 2 8 6 10 16 17 20 23 20 19 18 18 16 16 18 18 21 24 18 18 18 16 6 19 22 25 24 20 19 19 27 27 31 23
16 16 16 16 15 15 14 13 11 11 13 4 4 5 7 11 14 16 14 15 21 21 20 18 20 18 19 19 16 20 15 13 10 13 15 20 8 23 25 27 28 28 28 21 28 29 26
16 17 16 17 15 14 13 13 12 9 7 4 5 3 2 6 11 13 13 16 20 22 15 21 22 22 17 18 15 9 8 11 15 20 26 14 8 15 20 27 26 29 30 28 21 20 21
18 17 16 18 18 17 15 13 13 10 3 5 6 6 4 10 13 13 18 21 24 23 25 21 19 21 23 21 15 14 16 19 21 24 19 19 21 9 14 23 36 17 22 23 21 25 23
18 19 18 19 17 16 15 15 14 11 8 6 6 3 4 7 13 19 19 23 22 20 20 22 18 16 12 9 8 12 14 17 24 25 21 21 17 9 11 16 19 18 22 16 13 15 17
17 18 18 19 18 16 16 15 15 14 11 5 7 6 4 6 13 19 16 19 17 18 19 20 14 18 13 8 9 10 9 14 8 8 6 11 11 9 12 7 11 19 15 7 4 16 9
18 19 19 20 19 18 18 17 17 15 14 7 7 10 7 7 14 16 16 13 16 13 11 17 16 15 5 3 5 7 13 15 18 19 16 8 3 10 10 6 11 11 17 6 13 8 4
19 19 20 20 20 19 20 20 19 17 17 11 9 9 8 8 14 22 24 23 15 11 11 13 10 8 11 13 10 12 10 7 11 13 15 15 7 6 4 3 15 18 18 8 12 22 14
20 20 21 21 20 19 20 21 21 20 20 16 10 9 9 10 13 18 23 26 17 17 14 12 13 19 5 7 5 5 13 10 15 14 10 8 6 6 5 4 7 14 7 12 19 25 17
Wind_Direction
29 27 24 17 15 9 5 5 4 359 359 9 15 21 16 8 2 358 348 336 328 321 313 300 300 317 298 229 72 132 224 243 258 263 259 247 241 238 243 216 163 231 126 260 85 201 283
24 24 21 18 14 10 7 359 358 355 351 348 355 3 2 2 355 350 339 333 328 316 306 299 310 320 253 269 71 116 260 255 289 271 210 242 309 345 296 273 248 360 112 165 166 201 206
29 25 22 19 16 12 6 4 358 349 343 341 348 347 348 344 338 332 330 320 310 298 294 294 309 291 272 332 226 312 211 256 257 294 266 281 306 270 103 114 273 181 164 190 203 182 191
29 28 27 24 20 16 12 6 358 355 345 342 340 338 338 335 332 326 321 308 294 286 282 281 299 286 286 103 338 204 222 203 215 208 272 302 252 264 318 90 216 201 231 204 187 180 187
27 27 27 25 22 20 17 13 5 353 347 340 336 333 332 329 329 325 315 304 287 272 253 279 280 218 260 144 208 200 246 250 187 205 227 206 248 223 198 204 194 219 244 218 159 190 158
32 29 28 26 25 23 23 21 14 5 350 343 333 328 325 324 324 322 313 286 294 293 230 233 257 287 170 247 124 202 175 258 213 180 192 216 228 216 212 207 207 222 211 246 240 191 208
32 31 29 25 25 26 24 23 23 19 10 356 345 334 326 319 316 325 334 257 222 202 236 238 191 265 178 99 140 214 179 196 227 217 215 209 214 213 211 217 246 359 298 309 266 145 181
31 30 26 26 25 22 21 22 23 21 15 8 356 343 330 322 317 318 286 278 48 356 300 249 240 246 260 194 220 225 161 211 196 212 226 168 238 243 245 239 223 258 270 276 286 160 183
29 27 26 24 20 16 15 14 12 13 12 10 4 352 340 328 319 286 257 21 21 345 265 209 220 223 194 206 230 197 181 202 233 228 225 223 230 198 223 203 230 231 246 258 277 93 241
25 23 23 19 17 15 13 6 3 1 358 355 356 348 341 326 304 339 273 71 305 312 278 170 196 227 152 224 239 236 180 255 229 239 244 231 240 199 218 238 218 245 273 240 310 304 258
22 20 19 18 16 15 13 11 9 3 354 350 348 342 327 350 311 290 28 332 315 238 299 142 141 90 169 190 131 209 164 192 253 228 241 223 162 208 218 224 219 241 82 181 237 257 285
21 20 19 17 15 12 11 8 2 358 353 348 341 339 325 178 226 333 336 326 269 250 255 171 143 191 176 214 216 130 195 235 293 263 266 250 46 225 228 231 327 108 149 210 271 245 254
16 14 12 11 10 8 6 4 360 355 348 341 331 323 307 307 342 340 315 264 255 240 112 166 202 197 209 201 219 190 194 191 206 194 227 234 225 209 234 139 336 176 175 237 234 193 245
13 11 9 6 5 2 0 359 356 351 344 338 325 312 222 253 320 319 261 252 251 274 268 82 210 186 218 213 219 209 220 222 213 235 283 220 227 185 190 208 178 196 192 193 237 227 254
9 9 9 7 2 357 358 355 352 347 341 339 316 279 226 216 203 231 243 222 251 236 13 352 11 240 218 242 237 205 221 234 225 200 218 206 241 225 178 197 208 172 216 239 282 277 278
360 357 357 359 6 1 359 356 353 345 336 335 313 298 274 121 169 211 225 244 274 303 316 316 299 300 291 272 210 218 227 209 230 232 213 240 268 229 153 188 232 238 146 185 221 243 236
3 360 359 4 359 3 357 356 355 347 336 326 269 266 81 79 182 219 231 237 259 266 289 332 300 289 303 309 307 253 243 245 222 223 228 224 245 321 100 206 178 188 211 229 228 214 226
358 356 356 357 357 355 355 355 356 348 342 346 313 279 91 219 226 241 244 258 266 279 282 293 281 281 275 283 286 290 293 284 288 239 247 235 220 243 216 200 213 210 209 207 207 214 234
357 9 4 0 1 351 349 349 349 349 358 324 314 304 129 258 264 276 298 297 299 286 283 264 262 264 293 298 299 288 288 294 309 240 226 197 239 252 265 180 244 228 224 220 235 264 250
9 2 359 358 359 356 351 350 349 347 339 328 297 312 280 203 251 278 284 288 294 306 315 359 344 325 307 297 284 281 284 296 345 312 252 90 230 231 233 234 173 207 215 222 224 233 243
355 355 353 355 352 351 355 350 348 349 332 311 267 308 7 304 317 322 323 312 303 293 289 294 299 285 271 277 285 294 309 323 296 310 316 283 246 248 261 266 261 233 209 216 217 230 229
347 349 347 347 348 344 345 345 344 350 327 267 336 357 353 306 296 297 290 282 286 292 297 292 279 300 308 297 294 300 307 301 295 330 343 326 290 291 258 255 254 261 259 235 217 228 239
342 341 341 341 340 338 344 345 342 349 353 317 5 340 270 274 291 291 283 300 308 312 303 308 316 317 280 284 293 311 242 252 252 270 283 285 299 302 274 264 253 242 244 246 238 223 222
334 336 337 338 338 337 335 336 340 335 272 293 299 315 276 279 281 282 299 300 294 295 297 304 299 293 301 311 316 301 281 270 260 248 228 247 257 266 269 268 245 247 231 242 242 239 230
331 330 331 329 328 329 331 330 323 316 304 289 282 263 273 272 285 287 295 298 298 285 275 273 277 288 332 310 295 286 287 274 252 237 239 220 250 263 262 248 273 250 232 217 212 244 234
322 322 323 321 317 320 319 321 319 310 294 287 266 247 247 282 250 271 284 290 303 297 298 292 303 326 319 270 267 252 253 282 273 287 212 229 259 261 270 264 247 232 239 199 140 255 190
319 319 319 318 318 317 315 313 312 311 300 284 277 273 261 262 262 267 260 271 276 292 293 292 293 294 260 267 277 261 263 264 264 270 273 268 225 247 255 276 299 317 254 166 212 262 191
315 315 316 316 315 314 311 308 305 303 300 292 275 268 251 262 270 265 269 266 267 262 267 281 305 259 253 255 264 258 246 287 292 314 310 281 257 252 233 240 262 348 330 28 327 335 346
312 312 312 312 309 304 303 303 302 299 297 295 280 266 255 250 265 283 268 261 263 264 259 252 248 265 284 296 240 273 287 280 279 280 285 295 304 306 252 244 239 284 247 318 326 316 327